Sidney, NE

6:51 PM MST on January 21, 2017 (GMT -0700)
Sidney

Weather History for KSNY - June, 2014

Change the Weather History Date:

Wednesday, June 25, 2014

  Actual Average Record
Temperature  
Mean Temperature 70 °F 71 °F  
Max Temperature 83 °F 86 °F 109 °F (2012)
Min Temperature 57 °F 56 °F 42 °F (1976)
Degree Days  
Heating Degree Days 0 1  
Month to date heating degree days 55 56  
Since 1 June heating degree days 55 56  
Since 1 July heating degree days 6630 6218  
Cooling Degree Days 5 7  
Month to date cooling degree days 52 99  
Year to date cooling degree days 68 121  
Since 1 June cooling degree days 52 99  
Growing Degree Days 21 (Base 50)    
Moisture  
Dew Point 56 °F    
Average Humidity 67    
Maximum Humidity 90    
Minimum Humidity 43    
Precipitation  
Precipitation 0.41 in 0.09 in 1.21 in (1992)
Month to date precipitation 3.33 2.73  
Year to date precipitation 8.33 9.49  
Sea Level Pressure  
Sea Level Pressure 29.93 in    
Wind  
Wind Speed 10 mph (SSE)    
Max Wind Speed 26 mph    
Max Gust Speed 36 mph    
Visibility 8 miles    
Events Rain , Thunderstorm    
T = Trace of Precipitation, MM = Missing Value Source: NWS Daily Summary

Daily Weather History Graph

Daily Weather History Graph

Search for Another Location

Airport or City:

Trip Planner

Search our weather history database for the weather conditions in past years. The results will help you decide how hot, cold, wet, or windy it might be!

Date:

Astronomy

Jun. 25, 2014 Rise Set
Actual Time 5:20 AM MDT 8:28 PM MDT
Civil Twilight 4:47 AM MDT 9:02 PM MDT
Nautical Twilight 4:03 AM MDT 9:45 PM MDT
Astronomical Twilight 3:12 AM MDT 10:36 PM MDT
Moon 4:14 AM MDT (6/25) 7:01 PM MDT (6/25)
Length of Visible Light 16h 15m
Length of Day
15h 07m
Waning Crescent, 2% of the Moon is Illuminated
Jun 25
Waning Crescent
Jun 27
New
Jul 5
First Quarter
Jul 12
Full
Jul 18
Last Quarter

Hourly Weather History & Observations

Time (MDT) Temp. Heat Index Dew Point Humidity Pressure Visibility Wind Dir Wind Speed Gust Speed Precip Events Conditions
12:53 AM 62.1 °F - 57.9 °F 86% 29.97 in 10.0 mi Calm Calm - N/A   Scattered Clouds
1:53 AM 61.0 °F - 57.9 °F 90% 29.98 in 9.0 mi Calm Calm - N/A   Clear
2:53 AM 61.0 °F - 59.0 °F 93% 29.98 in 6.0 mi Calm Calm - 0.00 in Rain Light Rain
3:53 AM 61.0 °F - 57.9 °F 90% 29.93 in 10.0 mi Calm Calm - 0.00 in   Clear
5:53 AM 60.1 °F - 57.0 °F 90% 29.95 in 7.0 mi NNE 3.5 mph - N/A   Clear
6:53 AM 61.0 °F - 57.9 °F 90% 29.96 in 6.0 mi SSE 3.5 mph - N/A   Clear
7:53 AM 66.9 °F - 55.9 °F 68% 29.94 in 10.0 mi South 9.2 mph 16.1 mph N/A   Clear
8:53 AM 71.1 °F - 57.0 °F 61% 29.94 in 10.0 mi SSE 8.1 mph - N/A   Clear
9:53 AM 73.9 °F - 55.9 °F 53% 29.93 in 10.0 mi SE 8.1 mph - N/A   Clear
10:53 AM 77.0 °F - 55.9 °F 48% 29.91 in 10.0 mi South 9.2 mph - N/A   Clear
11:53 AM 79.0 °F - 57.0 °F 47% 29.90 in 10.0 mi SSE 13.8 mph 18.4 mph N/A   Clear
12:53 PM 80.1 °F 80.4 °F 57.0 °F 45% 29.88 in 10.0 mi SSE 12.7 mph 21.9 mph N/A   Clear
2:53 PM 82.0 °F 82.0 °F 57.9 °F 44% 29.84 in 10.0 mi SSE 17.3 mph 24.2 mph N/A   Clear
3:53 PM 79.0 °F - 57.9 °F 48% 29.83 in 10.0 mi SSE 16.1 mph 26.5 mph N/A   Clear
4:53 PM 78.1 °F - 57.9 °F 50% 29.82 in 10.0 mi SE 16.1 mph - N/A   Clear
5:53 PM 75.0 °F - 59.0 °F 57% 29.83 in 10.0 mi ESE 11.5 mph - N/A   Clear
6:29 PM 73.0 °F - 59.0 °F 61% 30.00 in 10.0 mi SW 9.2 mph - N/A Thunderstorm Scattered Clouds
6:43 PM 64.0 °F - 52.0 °F 65% 30.04 in 4.0 mi West 25.3 mph 34.5 mph 0.06 in Rain , Thunderstorm Thunderstorms and Rain
6:46 PM 62.1 °F - 54.0 °F 75% 30.04 in 2.5 mi WNW 25.3 mph 35.7 mph 0.10 in Rain , Thunderstorm Heavy Thunderstorms and Rain
6:49 PM 60.8 °F - 53.6 °F 77% 30.02 in 1.8 mi WSW 21.9 mph 35.7 mph 0.18 in Rain , Thunderstorm Heavy Thunderstorms and Rain
7:05 PM 61.0 °F - 53.1 °F 75% 30.01 in 3.0 mi SSE 6.9 mph - 0.10 in Rain , Thunderstorm Thunderstorms and Rain
7:16 PM 60.1 °F - 55.0 °F 83% 29.99 in 2.5 mi ESE 15.0 mph - 0.15 in Rain , Thunderstorm Thunderstorms and Rain
7:40 PM 61.0 °F - 54.0 °F 78% 29.98 in 10.0 mi SSE 6.9 mph - 0.15 in Thunderstorm Overcast
7:50 PM 60.8 °F - 53.6 °F 77% 29.99 in 10.0 mi SE 10.4 mph 21.9 mph 0.15 in   Overcast
7:53 PM 61.0 °F - 54.0 °F 78% 29.88 in 10.0 mi SSE 12.7 mph 21.9 mph 0.15 in   Overcast
8:53 PM 64.0 °F - 53.1 °F 67% 29.81 in 10.0 mi SSE 16.1 mph - 0.00 in   Overcast
9:53 PM 63.0 °F - 54.0 °F 72% 29.83 in 10.0 mi SSE 13.8 mph - N/A   Clear
11:53 PM 62.1 °F - 54.0 °F 75% 29.81 in 10.0 mi SW 11.5 mph - N/A   Partly Cloudy